Flag for Germany Weather past 2 weeks in Melsungen, Hesse, Germany

Now
60 °F

Passing clouds.


Feels Like: 60 °F
Forecast: 36 / 52 °F
Wind: 5 mph from Northwest

Location: Fritzlar

Current Time: Apr 21, 2015 at 11:17:37 PM

Latest Report: Apr 21, 2015 at 10:00 PM


Visibility: 22 mi

Pressure: 30.37 "Hg

Humidity: 39%

Dew point: 35 °F

Location of MelsungenLocation

Historic Weather in Melsungen — Graph

°F

Melsungen temperature yesterday

Maximum temperature yesterday: 64 °F (at 5:00 PM)
Minimum temperature yesterday: 35 °F (at 7:00 AM)
Average temperature yesterday: 50 °F

Past Weeks' High & Low Weather Summary

 TemperatureHumidityPressure
High75 °F (Apr 15, 5:00 PM)97% (Apr 9, 8:00 AM)30.66 "Hg (Apr 9, 8:00 AM)
Low26 °F (Apr 7, 6:00 AM)23% (Apr 21, 7:00 PM)29.90 "Hg (Apr 15, 7:00 PM)
Average49 °F64%30.27 "Hg
* Reported Apr 6 10:00 PM — Apr 21 10:00 PM, Melsungen, Weather by CustomWeather, © 2015

Note: Actual official high and low records may vary slightly from our data, if they occured in-between our weather recording intervals... More about our weather records

Advertising

Melsungen weather history for previous 24 hours

 ConditionsComfort  
Time TempWeatherWind HumidityBarometerVisibility
10:00 PM
Tue, Apr 21
60 °FPassing clouds.5 mph39%30.37 "Hg22 mi
9:00 PM62 °FPassing clouds.5 mph34%30.35 "Hg22 mi
8:00 PM65 °FScattered clouds.5 mph28%30.33 "Hg25 mi
7:00 PM67 °FPassing clouds.6 mph23%30.32 "Hg25 mi
6:00 PM68 °FPassing clouds.6 mph24%30.33 "Hg25 mi
5:00 PM69 °FPassing clouds.6 mph27%30.34 "Hg25 mi
4:00 PM69 °FPassing clouds.5 mph28%30.34 "Hg25 mi
3:00 PM67 °FPassing clouds.7 mph29%30.36 "Hg25 mi
2:00 PM67 °FPartly sunny.5 mph33%30.37 "Hg25 mi
1:00 PM66 °FOvercast.3 mph30%30.39 "Hg25 mi
12:00 PM63 °FOvercast.3 mph32%30.41 "Hg25 mi
11:00 AM59 °FPartly sunny.2 mph45%30.41 "Hg19 mi
10:00 AM53 °FPartly sunny.N/A67%30.43 "Hg19 mi
9:00 AM47 °FPartly sunny.N/A79%30.44 "Hg19 mi
8:00 AM42 °FScattered clouds.1 mph87%30.44 "Hg19 mi
7:00 AM38 °FFog.2 mph91%30.42 "Hg19 mi
6:00 AM40 °FPassing clouds.2 mph88%30.41 "Hg19 mi
5:00 AM38 °FClear.1 mph86%30.41 "Hg16 mi
4:00 AM40 °FClear.2 mph80%30.41 "Hg19 mi
3:00 AM45 °FClear.1 mph72%30.40 "Hg22 mi
1:00 AM46 °FPassing clouds.2 mph70%30.38 "Hg22 mi
12:00 AM48 °FPassing clouds.3 mph68%30.37 "Hg22 mi
Weather by CustomWeather, © 2015

See weather overviewHow to use our weather pages